Location: Narvik
(68.4360°N, 17.4370°E)
Time: 05:09:02
(UTC+02:00)

DX 1 - Visible Passes

Search period start: 22 August 2019 00:00
Search period end: 01 September 2019 00:00
Orbit: 619 x 631 km, 98.4° (Epoch: 21 August)

Date Brightness Start Highest point End Pass type
(mag) Time Alt. Az. Time Alt. Az. Time Alt. Az.
22 Aug ? 00:37:23 10° ENE 00:40:37 21° NNE 00:43:52 10° NNW visible
22 Aug ? 02:11:55 10° ESE 02:16:01 41° NE 02:20:08 10° NNW visible
22 Aug ? 23:21:36 10° NE 23:24:15 16° N 23:26:54 10° NNW visible
23 Aug ? 00:55:52 10° E 00:59:17 23° NNE 01:02:43 10° NNW visible
23 Aug ? 02:30:35 10° SE 02:34:47 50° NE 02:39:01 10° NNW visible
23 Aug ? 23:40:07 10° NE 23:42:52 17° NNE 23:45:37 10° NNW visible
24 Aug ? 01:14:22 10° E 01:17:58 26° NE 01:21:35 10° NNW visible
24 Aug ? 02:49:19 10° SE 02:53:36 61° ENE 02:57:55 10° NNW visible
24 Aug ? 22:23:55 10° NNE 22:26:35 16° N 22:29:15 10° NW visible
24 Aug ? 23:58:36 10° ENE 00:01:30 18° NNE 00:04:23 10° NNW visible
25 Aug ? 01:32:54 10° E 01:36:40 29° NE 01:40:27 10° NNW visible
25 Aug ? 03:08:05 10° SE 03:12:26 76° ENE 03:16:49 10° NNW visible
25 Aug ? 22:42:34 10° NE 22:45:11 16° N 22:47:49 10° NW visible
26 Aug ? 00:17:05 10° ENE 00:20:07 19° NNE 00:23:11 10° NNW visible
26 Aug ? 01:51:28 10° ESE 01:55:24 34° NE 01:59:21 10° NNW visible
26 Aug ? 03:26:56 10° SSE 03:31:18 87° WSW 03:35:42 10° NNW visible
26 Aug ? 23:01:12 10° NE 23:03:48 16° N 23:06:25 10° NW visible
27 Aug ? 00:35:33 10° ENE 00:38:46 20° NNE 00:42:00 10° NNW visible
27 Aug ? 02:10:04 10° ESE 02:14:08 40° NE 02:18:14 10° NNW visible
27 Aug ? 23:19:45 10° NE 23:22:24 16° N 23:25:04 10° NNW visible
28 Aug ? 00:54:02 10° E 00:57:26 23° NNE 01:00:50 10° NNW visible
28 Aug ? 02:28:44 10° SE 02:32:55 48° NE 02:37:09 10° NNW visible
28 Aug ? 22:03:20 10° NNE 22:06:07 17° NNW 22:08:55 10° NW visible
28 Aug ? 23:38:17 10° NE 23:41:02 17° N 23:43:47 10° NNW visible
29 Aug ? 01:12:32 10° E 01:16:07 25° NE 01:19:42 10° NNW visible
29 Aug ? 02:47:26 10° SE 02:51:43 59° ENE 02:56:02 10° NNW visible
29 Aug ? 22:22:03 10° NNE 22:24:44 16° N 22:27:26 10° NW visible
29 Aug ? 23:56:46 10° ENE 23:59:39 17° NNE 00:02:31 10° NNW visible
30 Aug ? 01:31:04 10° E 01:34:48 29° NE 01:38:35 10° NNW visible
30 Aug ? 03:06:12 10° SE 03:10:33 73° ENE 03:14:56 10° NNW visible
30 Aug ? 22:40:43 10° NNE 22:43:21 16° N 22:45:59 10° NW visible
31 Aug ? 00:15:15 10° ENE 00:18:17 19° NNE 00:21:19 10° NNW visible
31 Aug ? 01:49:37 10° ESE 01:53:32 33° NE 01:57:28 10° NNW visible
31 Aug ? 03:25:02 10° SSE 03:29:24 90° ESE 03:33:49 10° NNW visible
31 Aug ? 22:59:20 10° NE 23:01:57 16° N 23:04:35 10° NW visible
